FW1396 Weather Reports


Display with metric or nautical units.
time (UTC)temp
F
wind
direction
speed
MPH
gust
MPH
rain 1hr
in
rain 24hr
in
rain mn
in
humidity
%
barometer
mb
20260505024956 71 272 5.0 10.0 0.00 0.00 0.00 62 990.7
20260505023957 71 250 6.0 9.0 0.00 0.00 0.00 62 990.5
20260505023503 72 221 3.0 7.0 0.00 0.00 0.00 61 990.4
20260505022956 72 243 4.0 10.0 0.00 0.00 0.00 61 990.4
20260505022457 72 262 6.0 10.0 0.00 0.00 0.00 61 990.2
20260505021958 72 243 4.0 7.0 0.00 0.00 0.00 60 990.1
20260505021457 72 233 5.0 7.0 0.00 0.00 0.00 60 990.0
20260505020956 73 243 3.0 7.0 0.00 0.00 0.00 59 990.0
20260505020456 73 206 3.0 6.0 0.00 0.00 0.00 59 989.9
20260505020227 73 234 4.0 6.0 0.00 0.00 0.00 58 989.9
20260505015456 74 248 5.0 11.0 0.00 0.00 0.00 58 989.9
20260505015227 74 265 4.0 11.0 0.00 0.00 0.00 58 989.9
20260505014456 74 233 7.0 11.0 0.00 0.00 0.00 58 989.7
20260505014228 74 237 5.0 9.0 0.00 0.00 0.00 58 989.7
20260505013455 74 252 5.0 9.0 0.00 0.00 0.00 57 989.8
20260505013226 74 251 6.0 15.0 0.00 0.00 0.00 57 989.8
20260505012454 74 234 6.0 15.0 0.00 0.00 0.00 57 989.6
20260505011955 74 240 3.0 7.0 0.00 0.00 0.00 56 989.6
20260505011455 75 279 5.0 13.0 0.00 0.00 0.00 56 989.6
20260505011226 75 251 6.0 13.0 0.00 0.00 0.00 56 989.6
20260505010456 75 247 5.0 6.0 0.00 0.00 0.00 55 989.6
20260505005954 76 245 4.0 7.0 0.00 0.00 0.00 55 989.6
20260505005455 76 257 4.0 7.0 0.00 0.00 0.00 54 989.6
20260505004954 76 250 4.0 9.0 0.00 0.00 0.00 54 989.5
20260505004455 76 227 6.0 9.0 0.00 0.00 0.00 54 989.5
20260505003955 0 258 7.0 6.0 0.00 0.00 0.00 989.5
20260505003455 77 258 7.0 15.0 0.00 0.00 0.00 53 989.4
20260505003224 77 274 7.0 15.0 0.00 0.00 0.00 53 989.4
20260505002453 77 244 5.0 11.0 0.00 0.00 0.00 52 989.4
20260505001953 77 237 8.0 11.0 0.00 0.00 0.00 52 989.3
20260505001451 78 231 7.0 12.0 0.00 0.00 0.00 51 989.2
20260505000952 78 231 7.0 12.0 0.00 0.00 0.00 51 989.3
20260504235952 78 257 6.0 17.0 0.00 0.00 0.00 51 989.1
20260504235452 78 258 7.0 15.0 0.00 0.00 0.00 51 989.0
20260504234952 78 266 8.0 15.0 0.00 0.00 0.00 50 989.0
20260504234453 79 255 7.0 11.0 0.00 0.00 0.00 50 989.1
20260504233950 79 264 7.0 11.0 0.00 0.00 0.00 49 989.1
20260504233450 79 264 7.0 12.0 0.00 0.00 0.00 49 989.1
20260504232950 79 252 11.0 18.0 0.00 0.00 0.00 48 989.1
20260504232449 79 275 11.0 18.0 0.00 0.00 0.00 48 989.2
20260504231950 0 0.0 0.0 0.00 0.00 0.00 989.2
20260504231448 0 0.0 0.0 0.00 0.00 0.00 989.3
20260504230948 0 276 5.0 9.0 0.00 0.00 0.00 989.3
20260504230446 80 276 5.0 13.0 0.00 0.00 0.00 47 989.2
20260504225946 80 258 6.0 13.0 0.00 0.00 0.00 47 989.3
20260504225446 80 231 9.0 12.0 0.00 0.00 0.00 47 989.3
20260504224946 80 248 7.0 16.0 0.00 0.00 0.00 47 989.3
20260504224446 80 244 12.0 16.0 0.00 0.00 0.00 46 989.2
20260504223946 80 275 8.0 14.0 0.00 0.00 0.00 46 989.3
20260504223444 80 275 8.0 14.0 0.00 0.00 0.00 46 989.3
20260504222947 0 0.0 0.0 0.00 0.00 0.00 989.2
20260504222214 0 251 4.0 3.0 0.00 0.00 0.00 989.4
20260504221441 81 251 4.0 12.0 0.00 0.00 0.00 45 989.3
20260504220940 81 295 5.0 12.0 0.00 0.00 0.00 45 989.4
20260504220442 0 0.0 0.0 0.00 0.00 0.00 989.4
20260504215940 0 0.0 0.0 0.00 0.00 0.00 989.4
20260504215709 0 0.0 0.0 0.00 0.00 0.00 989.3
20260504214436 81 257 12.0 15.0 0.00 0.00 0.00 45 989.4
20260504213936 0 272 12.0 9.0 0.00 0.00 0.00 989.5
20260504213435 81 272 12.0 17.0 0.00 0.00 0.00 46 989.6
20260504212933 81 262 13.0 17.0 0.00 0.00 0.00 46 989.6
20260504212437 81 266 8.0 10.0 0.00 0.00 0.00 46 989.7
20260504211935 81 266 8.0 10.0 0.00 0.00 0.00 46 989.5
20260504211705 0 0.0 0.0 0.00 0.00 0.00 989.5
20260504210932 0 0.0 0.0 0.00 0.00 0.00 989.6
20260504210434 0 0.0 0.0 0.00 0.00 0.00 989.5
20260504210201 81 227 7.0 9.0 0.00 0.00 0.00 46 989.8
20260504205428 81 227 7.0 10.0 0.00 0.00 0.00 46 989.7
20260504204929 81 281 5.0 11.0 0.00 0.00 0.00 46 989.8
20260504204428 82 265 7.0 12.0 0.00 0.00 0.00 45 989.8
20260504203928 82 278 7.0 12.0 0.00 0.00 0.00 45 989.9
20260504203427 0 0.0 0.0 0.00 0.00 0.00 989.9
20260504202926 0 0.0 0.0 0.00 0.00 0.00 990.0
20260504202425 0 0.0 0.0 0.00 0.00 0.00 990.2
20260504201924 0 358 6.0 10.0 0.00 0.00 0.00 990.1
20260504201423 0 358 6.0 10.0 0.00 0.00 0.00 990.1
20260504200923 81 258 14.0 18.0 0.00 0.00 0.00 44 990.0
20260504200421 81 258 14.0 18.0 0.00 0.00 0.00 44 990.2
20260504195920 81 279 12.0 15.0 0.00 0.00 0.00 44 990.3
20260504195421 0 0.0 0.0 0.00 0.00 0.00 990.4
20260504194920 0 0.0 0.0 0.00 0.00 0.00 990.3
20260504194424 0 0.0 0.0 0.00 0.00 0.00 990.4
20260504193940 0 0.0 0.0 0.00 0.00 0.00 990.4
20260504193416 0 0.0 0.0 0.00 0.00 0.00 990.5
20260504193147 0 226 6.0 9.0 0.00 0.00 0.00 990.5
20260504192645 0 226 6.0 9.0 0.00 0.00 0.00 990.4
20260504191914 0 0.0 0.0 0.00 0.00 0.00 990.6
20260504191413 0 0.0 0.0 0.00 0.00 0.00 990.6
20260504190912 0 0.0 0.0 0.00 0.00 0.00 990.6
20260504190410 0 0.0 0.0 0.00 0.00 0.00 990.7
20260504185910 0 0.0 0.0 0.00 0.00 0.00 990.8
20260504185408 80 233 8.0 13.0 0.00 0.00 0.00 46 990.8
20260504184907 80 233 8.0 15.0 0.00 0.00 0.00 46 990.7
20260504184407 80 254 8.0 15.0 0.00 0.00 0.00 46 990.7
20260504183907 80 258 9.0 20.0 0.00 0.00 0.00 45 990.8
20260504183406 80 233 9.0 20.0 0.00 0.00 0.00 46 991.0
20260504182905 80 245 8.0 20.0 0.00 0.00 0.00 45 991.0
20260504182406 80 266 13.0 20.0 0.00 0.00 0.00 44 991.0
20260504181907 80 238 10.0 16.0 0.00 0.00 0.00 46 991.1
20260504181407 80 251 9.0 17.0 0.00 0.00 0.00 46 991.0
20260504180905 80 251 9.0 17.0 0.00 0.00 0.00 46 991.0
20260504180405 79 268 8.0 7.0 0.00 0.00 0.00 44 991.2
20260504175907 79 268 8.0 13.0 0.00 0.00 0.00 44 991.3
20260504175404 79 269 9.0 19.0 0.00 0.00 0.00 44 991.3
20260504174904 79 266 12.0 19.0 0.00 0.00 0.00 45 991.3
20260504174402 79 220 8.0 17.0 0.00 0.00 0.00 46 991.5
20260504173904 79 207 9.0 14.0 0.00 0.00 0.00 46 991.5
20260504173403 79 254 10.0 19.0 0.00 0.00 0.00 47 991.6
20260504173133 79 240 9.0 19.0 0.00 0.00 0.00 47 991.5
20260504172407 78 272 11.0 19.0 0.00 0.00 0.00 46 991.7
20260504171902 78 247 9.0 13.0 0.00 0.00 0.00 46 991.8
20260504171404 78 233 4.0 21.0 0.00 0.00 0.00 48 991.9
20260504170902 78 243 15.0 21.0 0.00 0.00 0.00 53 992.0
20260504170403 0 0.0 0.0 0.00 0.00 0.00 991.9
20260504160355 0 0.0 0.0 0.00 0.00 0.00 992.8
20260504150849 73 250 9.0 12.0 0.00 0.00 0.00 54 993.1
20260504150343 73 250 9.0 12.0 0.00 0.00 0.00 54 993.1
20260504140841 70 262 10.0 16.0 0.00 0.00 0.00 60 993.5
20260504140341 70 244 7.0 16.0 0.00 0.00 0.00 60 993.7
20260504130336 61 233 4.0 9.0 0.00 0.00 0.00 80 993.8
20260504110331 53 83 2.0 2.0 0.00 0.00 0.00 89 993.5
20260504100327 54 83 3.0 5.0 0.00 0.00 0.00 89 993.6
20260504081829 60 140 1.0 3.0 0.00 0.00 0.00 77 993.7
20260504081323 61 244 1.0 2.0 0.00 0.00 0.00 76 993.6
20260504080829 61 244 0.0 1.0 0.00 0.00 0.00 75 993.5
20260504080322 62 244 0.0 1.0 0.00 0.00 0.00 74 993.6
20260504070323 63 241 0.0 2.0 0.00 0.00 0.00 71 994.0
20260504050316 66 268 2.0 9.0 0.00 0.00 0.00 64 995.4
20260504045322 66 258 4.0 7.0 0.00 0.00 0.00 64 995.5
20260504044316 67 266 1.0 4.0 0.00 0.00 0.00 63 995.6
20260504043817 67 266 0.0 6.0 0.00 0.00 0.00 63 995.6
20260504043317 67 266 3.0 9.0 0.00 0.00 0.00 63 995.6
20260504042817 67 261 2.0 9.0 0.00 0.00 0.00 63 995.6
20260504042317 67 252 1.0 5.0 0.00 0.00 0.00 63 995.6
20260504041815 67 252 2.0 5.0 0.00 0.00 0.00 63 995.6
20260504041315 67 254 3.0 4.0 0.00 0.00 0.00 62 995.7
20260504040816 67 257 2.0 6.0 0.00 0.00 0.00 62 995.7
20260504040315 67 257 2.0 7.0 0.00 0.00 0.00 62 995.7
20260504035815 67 259 2.0 10.0 0.00 0.00 0.00 63 995.8
20260504035316 67 248 4.0 10.0 0.00 0.00 0.00 63 995.7
20260504035047 63 255 3.0 4.0 0.00 0.00 0.00 69 995.8
20260504034548 63 255 3.0 6.0 0.00 0.00 0.00 69 995.9
20260504033815 63 257 3.0 6.0 0.00 0.00 0.00 71 995.9
20260504033315 61 80 0.0 0.0 0.00 0.00 0.00 74 995.9
20260504033045 61 80 0.0 0.0 0.00 0.00 0.00 74 996.0
20260504032314 61 80 0.0 0.0 0.00 0.00 0.00 75 995.9
20260504031814 61 80 0.0 0.0 0.00 0.00 0.00 74 995.9
20260504031314 61 80 0.0 0.0 0.00 0.00 0.00 75 996.0
20260504030814 61 80 0.0 0.0 0.00 0.00 0.00 74 995.9
20260504030313 61 80 0.0 0.0 0.00 0.00 0.00 73 995.9
20260504025814 61 80 0.0 0.0 0.00 0.00 0.00 73 995.9
20260504025313 61 80 0.0 0.0 0.00 0.00 0.00 73 995.9